STARLINK-35629, 66127

Orbit data source: Space-Track

STARLINK-35629, 66127 is a payload satellite owned by SpaceX/Seattle (US) in LEO that was launched on Wed, 22 Oct 2025 UTC via an FALCON 9 launch vehicle from the Air Force Western Test Range (AFWTR). Payload-class satellites include a variety of spacecraft equipped with specific instruments for various scientific and technological missions. These include communications satellites like Starlink; space stations such as the ISS; scientific satellites like the Hubble; Earth observation satellites from companies like Planet Labs, Umbra, and HawkEye 360; GPS; miniature CubeSats for education and research; and military/defense satellites.

Loading next visibility...
Identifier
66127, 2025-237P
Orbit
LEO
Country
Flag of USUS
Related business
Manufacturer
SpaceX/Seattle
Mission
Operational Commercial Communications
Bus & Motor
STARLINK V2MO, Unknown motor
Mass
575 kg wet, ~530 kg dry
Launch date (UTC)
2025-10-22 (4 months ago)
Launch vehicle
FALCON 9
Launch site
Air Force Western Test Range (AFWTR)
Object type
Payload
Rocket body
Debris
Shape & HBR
Box + 2 Pan, 17.7 m
Radar Cross Section
36.964 m²

Expand to show TLE details & history
Last TLE update: 21 hours ago

TLE from 21 hours ago
0 STARLINK-35629
1 66127U 25237P   26061.29013261  .00011620  00000-0  40386-3 0  9994
2 66127  53.1613  74.2745 0001511  94.9283 265.1890 15.30198801 21476
Epoch: 2026-03-02T06:57Z
TLE epoch observation values (Epoch: 2026-03-02T06:57:47.457Z)
Latitude
-0.00005°
Longitude
169.74106°
Altitude
476.206 km
Speed
7.629 km/s
True Right ascension
04h 57m 05s
True Declination
0° 00' 00"
Sunlit
Object was in daylight at epoch
Visualization orbit readout
Latitude
Unknown
Longitude
Unknown
Altitude
Unknown
Speed
Unknown
Apparent Right ascension
Unknown
Apparent Declination
Unknown
Sunlit
N/A
Visualization observer readout
Local Sidereal Time
07:14:36
Azimuth
Unknown
Elevation
Unknown
Doppler factor
Unknown
Orbital elements
Apogee altitude
476.51 km
Perigee altitude
474.439 km
Semi-major axis
6,853.612 km
Eccentricity
0.00015
Inclination
53.1613°
RAAN
74.2745°
Arg. of periapsis
94.9283°
True anomaly
265.17175°
Mean anomaly
265.189°
Eccentric anomaly
265.18037°
Mean motion
3.82529 °/min
Orbital period
94.11 mins
BSTAR
0.00040386
Loading maneuver chart data...
Computing Atmospheric mass density...
Loading historical data...
Loading historical data...
Loading historical data...
Loading historical data...
Loading historical data...
Loading historical data...
Loading historical data...

Documentation

Showing up to 5 results
|